Location: *
(10.5707°S, 113.0111°E)
Time: 11:44:18
(UTC+00:00)

Daily predictions for brighter satellites

Satellite Brightness Start Highest point End
(mag) Time Altitude Azimuth Time Altitude Azimuth Time Altitude Azimuth
CZ-2C R/B 2.5 12:00:47 10° N 12:05:58 82° WNW 12:11:10 10° SSW
GEOS 3 Rocket 4.1 12:01:29 10° NNE 12:06:44 62° WNW 12:11:54 10° SW
DMSP B5D2-2 4.2 12:05:36 10° N 12:10:45 71° WNW 12:15:59 10° SSW
H-2A R/B 3.0 12:12:56 10° WNW 12:17:15 82° SSW 12:20:50 46° SE
Meteor 2-16 Rocket 4.4 12:14:31 16° S 12:19:34 79° W 12:25:38 10° N
SJ 16-02 2.6 12:17:54 10° NW 12:21:58 38° WSW 12:22:05 38° WSW
Meteor 2-15 Rocket 4.3 12:17:04 10° N 12:22:35 74° NNE 12:22:35 74° NNE
Cosmos 2228 4.3 12:19:27 10° NNW 12:22:10 36° NNW 12:22:10 36° NNW
Cosmos 1937 Rocket 4.3 12:20:40 10° N 12:24:07 42° N 12:24:07 42° N
Cosmos 2315 Rocket 4.1 12:26:42 10° N 12:32:07 67° N 12:32:07 67° N
Ariane H10 4.4 12:26:28 10° WNW 12:39:08 52° NNW 12:39:08 52° NNW
Ariane H10 3.4 12:35:42 10° WNW 12:40:03 66° N 12:40:03 66° N
Centaur AC-146 3.3 20:42:11 37° ESE 20:42:11 37° ESE 20:47:50 10° E
Ariane H10+ 4.2 20:45:04 24° NNE 20:45:04 24° NNE 20:46:56 10° NE
Okean 2 Rocket 4.1 20:47:21 42° NNE 20:47:21 42° NNE 20:50:20 10° N
Ariane H10 4.2 20:46:30 52° WNW 20:48:00 68° N 20:51:47 10° E
Cosmos 968 Rocket 4.3 20:46:45 36° SSE 20:48:22 47° ESE 20:53:20 10° NNE
CZ-4B R/B 3.6 20:44:57 10° NNE 20:48:52 56° E 20:48:52 56° E
Meteor 1-23 Rocket 4.4 20:45:31 10° N 20:50:14 59° NW 20:50:14 59° NW
CZ-4B R/B 3.4 20:53:06 28° ENE 20:53:06 28° ENE 20:55:53 10° NNE
Cosmos 1486 Rocket 4.1 20:53:15 60° SSE 20:54:08 75° ESE 20:59:26 10° NNE
ARIANE 5 R/B 4.2 20:52:35 24° WNW 20:57:42 36° NNW 21:01:22 10° NE
Hubble Space Telescope 3.9 20:56:58 10° NNE 20:57:49 11° NNE 20:58:40 10° NE
SL-4 R/B 3.5 21:00:47 25° SE 21:00:47 25° SE 21:03:33 10° ENE
CENTAUR R/B 3.6 21:02:58 21° NNW 21:02:58 21° NNW 21:05:28 10° N
Atlas Centaur 2 3.2 21:01:59 45° SW 21:03:12 48° SSW 21:10:27 10° SE
Cosmos 2151 Rocket 3.5 21:08:39 61° S 21:09:26 87° W 21:13:57 10° N
Cosmos 1242 Rocket 4.1 21:08:35 10° N 21:10:13 26° N 21:10:13 26° N
Shenzhou-11 Module 4.1 21:16:07 20° NE 21:16:07 20° NE 21:17:00 10° NE
METEOR-M 4.1 21:11:35 10° N 21:16:48 58° WNW 21:18:31 40° SW
PSLV R/B 4.4 21:15:09 10° NNE 21:19:10 59° ESE 21:22:06 18° S
Delta 7925 Rocket 4.4 21:19:43 26° S 21:19:43 26° S 21:23:27 10° SE
Centaur D-1A AC-31 4.0 21:17:15 10° NNW 21:19:34 14° NNE 21:21:36 10° ENE
Cosmos 1975 Rocket 3.6 21:16:20 10° N 21:20:44 62° E 21:25:11 10° SSE
Cosmos 1842 3.6 21:18:37 10° N 21:22:31 65° E 21:26:27 10° SSE
Cosmos 1697 Rocket 2.9 21:17:01 10° N 21:22:35 73° ENE 21:28:11 10° SSE
Cosmos 1354 Rocket 4.4 21:18:03 13° S 21:22:44 63° ESE 21:27:55 10° NNE
Cosmos 2142 Rocket 4.4 21:20:09 10° S 21:26:18 84° W 21:32:26 10° N
GPS 2-17 Rocket1 3.3 21:31:03 34° W 21:32:55 62° NNW 21:37:33 10° ENE
ATLAS 3B CENTAUR R/B 2.1 21:34:27 17° N 21:34:27 17° N 21:35:15 10° NNE
H-2A R/B 4.1 21:32:28 10° NNE 21:36:05 39° ESE 21:39:45 10° S
Nadezhda 4 Rocket 3.9 21:32:16 10° N 21:38:33 72° W 21:44:51 10° S
Cosmos 1634 Rocket 4.4 21:34:45 17° SSW 21:39:06 41° W 21:44:57 10° NNW
CZ-4B DEB 4.2 21:34:33 10° NNE 21:40:00 88° ESE 21:45:31 10° SSW
CZ-3 R/B 4.3 21:24:07 10° NW 21:40:10 28° N 21:46:12 10° ENE
ARIANE 2 DEBRIS 4.0 21:38:06 20° WNW 21:40:21 57° N 21:49:22 10° E
COSMOS 2487 3.2 21:41:05 31° W 21:41:05 31° W 21:44:09 10° NNW
ATLAS 3B R/B 3.0 21:38:02 22° SW 21:42:17 47° WNW 21:48:38 10° N
ALOS 3.6 21:39:56 10° NNW 21:43:24 21° W 21:43:27 21° W
Delta 168 2.9 21:41:20 14° WNW 21:45:45 90° NNE 21:49:26 10° ESE
Centaur AC-64 4.2 21:23:51 10° WNW 21:46:26 70° NNE 21:50:29 10° ESE
GPS 2-18 Rocket1 3.2 21:45:47 25° W 21:47:54 62° SSW 21:51:52 10° ESE
Lacrosse 4 Rocket 3.3 21:44:58 10° S 21:48:56 31° ESE 21:52:53 10° NE
PAYLOAD B 4.2 21:49:05 10° N 21:54:33 79° WNW 22:00:05 10° SSW
Okean 2 4.3 21:53:54 10° NW 21:57:18 26° W 22:00:46 10° SSW
DELTA 2 R/B (1) 4.4 21:54:01 10° NW 21:59:28 53° NE 22:04:55 10° ESE
Cosmos 1271 Rocket 3.4 21:56:28 10° NW 21:59:46 30° W 22:03:05 10° SSW
FUSE 4.2 21:59:14 16° WSW 22:03:31 62° NNW 22:08:48 10° NE
GPS 2-15 Rocket1 4.4 22:01:14 14° SW 22:04:17 26° S 22:08:13 10° SE
Cosmos 921 Rocket 4.4 22:03:10 10° WNW 22:06:00 17° WSW 22:08:50 10° SW
Chandra Rocket (1) 3.4 22:01:06 12° SW 22:08:48 39° SSE 22:12:06 10° E
H-2A R/B 4.1 22:09:03 10° NW 22:11:28 15° W 22:13:41 11° WSW
ARIANE 5 R/B 3.4 22:08:47 10° WNW 22:12:30 57° NNE 22:32:14 10° E
Cosmos 1733 3.1 22:08:49 10° S 22:12:38 71° W 22:16:24 10° N
Centaur D-1AR AC-41 3.9 22:04:09 10° WNW 22:14:51 61° NNE 22:18:41 10° E
Okean O Rocket 1.7 22:13:31 10° N 22:17:50 62° WNW 22:22:14 10° SSW
Cosmos 2369 4.4 22:14:16 10° NW 22:19:14 31° WSW 22:24:13 10° SSW
COSMO-SKYMED 1 2.6 22:17:01 10° S 22:21:23 85° WSW 22:25:42 10° NNW
Cosmos 1536 Rocket 3.6 22:17:44 10° N 22:22:05 90° NW 22:26:28 10° S
Cosmos 1707 2.9 22:19:12 10° NNW 22:23:00 53° W 22:26:50 10° S
Okean 1 Rocket 4.4 22:22:05 10° SW 22:25:26 21° W 22:28:45 10° NW
Cosmos 1763 Rocket 3.7 22:22:05 10° NNW 22:27:11 50° WSW 22:32:21 10° S
